Regional Weather Roundup
Issued by NWS Kansas City/Pleasant Hill, MO

Home | Current Version | Previous Version | Text Only | Print | Product List | Glossary On
Versions: 1 2 3 4 5 6 7 8 9 10 11 12 13 14 15 16 17 18 19 20 21 22 23 24 25 26 27
000
ASUS43 KEAX 251410
RWREAX

WEATHER ROUNDUP FOR EASTERN KANSAS AND NORTHWEST MISSOURI
NATIONAL WEATHER SERVICE KANSAS CITY/PLEASANT HILL MO
900 AM CDT SUN JUN 25 2017

KSZ040-057-103>105-MOZ028-029-037-043-251500-
...KANSAS CITY METROPOLITAN AREA...

CITY           SKY/WX    TMP DP  RH WIND       PRES   REMARKS
K.C. INTL      MOSUNNY   67  50  54 N9        30.30R
K.C. DOWNTOWN  SUNNY     69  52  54 NW7       30.29R
LEES SUMMIT    SUNNY     69  52  54 NW13      30.30R
OLATHE - IXD   SUNNY     69  54  58 NW12      30.30R
OLATHE - OJC   SUNNY     67  51  56 NW12      30.29R
LAWRENCE       SUNNY     69  52  54 NW9       30.30R

$$

MOZ001>008-011>017-020>025-030>033-038>040-044>046-053-054-251500-
...NORTHERN AND CENTRAL MISSOURI...

CITY           SKY/WX    TMP DP  RH WIND       PRES   REMARKS
ST. JOSEPH     SUNNY     67  49  52 N9        30.31R
MOSBY          SUNNY     64  50  59 NW5       30.30R
WARRENSBURG    SUNNY     68  52  56 NW7       30.27R
WHITEMAN AFB   SUNNY     68  54  60 NW7       30.26R
CLINTON        SUNNY     70  55  60 W7        30.27F
SEDALIA        SUNNY     70  54  56 NW8       30.27R
WARSAW         NOT AVBL
CHILLICOTHE      N/A     68  53  58 VRB3      30.28R
KIRKSVILLE     SUNNY     66  48  52 NW9       30.26R

$$

MOZ041-047>049-056>058-063>065-088>090-097-251500-
...EASTERN AND SOUTHERN MISSOURI...

CITY           SKY/WX    TMP DP  RH WIND       PRES   REMARKS
ST. LOUIS INTL MOSUNNY   73  51  46 SW13      30.22S
SPIRIT OF STL  MOSUNNY   70  53  54 W13       30.21S
COLUMBIA       SUNNY     68  53  58 NW12      30.25R
JEFFERSON CITY SUNNY     70  53  54 W9        30.24S
ROLLA          SUNNY     69  54  58 W12G17    30.26R
OSAGE BEACH    SUNNY     69  55  60 W7        30.28S
SPRINGFIELD    MOSUNNY   73  54  51 W6        30.29R
BRANSON        MOSUNNY   70  55  60 SW5       30.31R
JOPLIN         SUNNY     75  59  57 NW6       30.30R
WEST PLAINS    SUNNY     73  51  46 W6        30.29S

$$

IAZ060-094-KSZ022-034>040-054-083-096-NEZ052-066-093-251500-
...KANSAS...SOUTHEAST NEBRASKA AND IOWA...

CITY           SKY/WX    TMP DP  RH WIND       PRES   REMARKS
TOPEKA         SUNNY     69  52  54 N9        30.31R
MANHATTAN      CLOUDY    67  53  61 VRB6      30.32R
EMPORIA        SUNNY     70  61  73 N3        30.29S
CHANUTE        SUNNY     74  52  46 NW5       30.29R
WICHITA        CLOUDY    70  58  65 S5        30.30R
OMAHA          MOSUNNY   64  45  49 N12       30.32R
LINCOLN        MOSUNNY   64  44  48 NW6       30.35R
FALLS CITY     SUNNY     65  48  54 N8        30.32R
LAMONI         SUNNY     63  46  54 NW15      30.28R
DES MOINES     MOSUNNY   62  46  55 NW16      30.25S

$$





USA.gov is the U.S. government's official web portal to all federal, state and local government web resources and services.